Location: Powder Track
(41.8531°N, 72.3584°W)
Time: 09:19:29
(UTC+00:00)

Transit 4A - Pass Details

Date: 09 August 2021
Orbit: 871 x 974 km, 66.8° (Epoch: 20 September)

Event Time Altitude Azimuth Distance (km) Brightness Sun altitude
Rises 04:55:21 0° 267° (W) 3,473 - -32.4°
Exits shadow 04:56:14 - 271° (W) 3,219 10.7 -32.4°
Reaches altitude 10° 04:59:06 10° 291° (WNW) 2,527 10.4 -32.4°
Maximum altitude 05:02:14 15° 324° (NW) 2,209 10.4 -32.3°
Drops below altitude 10° 05:05:23 10° 357° (N) 2,525 11.0 -32.3°
Sets 05:09:09 0° 21° (NNE) 3,470 11.9 -32.3°
